H1 CPF 2 NER 2022 1 5 9 005 01 glonass116 H2 0907001 9116 36111 2022 1 5 0 0 0 2022 1 8 23 45 0 900 1 1 0 0 0 1 H9 10 0 59584 0.00000 0 -20453532.031 -12690828.085 -8457528.781 10 0 59584 900.00000 0 -19348597.377 -12157471.568 -11347220.592 10 0 59584 1800.00000 0 -17879712.246 -11609254.875 -14016625.214 10 0 59584 2700.00000 0 -16070756.834 -11100754.495 -16413929.463 10 0 59584 3600.00000 0 -13957630.157 -10682014.712 -18492603.878 10 0 59584 4500.00000 0 -11586962.083 -10396294.586 -20212303.358 10 0 59584 5400.00000 0 -9014387.564 -10278115.855 -21539647.523 10 0 59584 6300.00000 0 -6302454.200 -10351694.014 -22448866.101 10 0 59584 7200.00000 0 -3518249.503 -10629818.734 -22922297.272 10 0 59584 8100.00000 0 -730845.623 -11113230.850 -22950729.738 10 0 59584 9000.00000 0 1991333.315 -11790522.443 -22533582.165 10 0 59584 9900.00000 0 4583112.757 -12638564.630 -21678916.587 10 0 59584 10800.00000 0 6985031.175 -13623445.701 -20403285.388 10 0 59584 11700.00000 0 9145564.024 -14701880.873 -18731414.443 10 0 59584 12600.00000 0 11023016.536 -15823035.103 -16695728.053 10 0 59584 13500.00000 0 12587007.440 -16930683.026 -14335724.271 10 0 59584 14400.00000 0 13819482.518 -17965615.663 -11697212.033 10 0 59584 15300.00000 0 14715216.352 -18868192.917 -8831424.423 10 0 59584 16200.00000 0 15281782.024 -19580934.419 -5794024.859 10 0 59584 17100.00000 0 15538990.809 -20051039.292 -2644025.276 10 0 59584 18000.00000 0 15517826.138 -20232728.126 557362.484 10 0 59584 18900.00000 0 15258917.583 -20089307.675 3747919.498 10 0 59584 19800.00000 0 14810620.040 -19594870.345 6865633.149 10 0 59584 20700.00000 0 14226780.061 -18735555.891 9849906.738 10 0 59584 21600.00000 0 13564284.515 -17510321.195 12642741.265 10 0 59584 22500.00000 0 12880495.964 -15931184.819 15189865.820 10 0 59584 23400.00000 0 12230683.742 -14022935.242 17441794.138 10 0 59584 24300.00000 0 11665559.805 -11822314.278 19354786.628 10 0 59584 25200.00000 0 11229023.675 -9376709.204 20891699.211 10 0 59584 26100.00000 0 10956211.838 -6742407.761 22022702.663 10 0 59584 27000.00000 0 10871933.800 -3982488.296 22725858.931 10 0 59584 27900.00000 0 10989560.621 -1164432.330 22987543.719 10 0 59584 28800.00000 0 11310412.561 1642441.567 22802707.625 10 0 59584 29700.00000 0 11823671.470 4369616.687 22174971.207 10 0 59584 30600.00000 0 12506821.508 6951981.009 21116552.453 10 0 59584 31500.00000 0 13326599.631 9330286.586 19648028.178 10 0 59584 32400.00000 0 14240415.969 11453364.308 17797933.999 10 0 59584 33300.00000 0 15198184.458 13280002.974 15602210.410 10 0 59584 34200.00000 0 16144486.885 14780415.433 13103505.512 10 0 59584 35100.00000 0 17020979.375 15937231.858 10350347.589 10 0 59584 36000.00000 0 17768940.085 16745979.783 7396203.305 10 0 59584 36900.00000 0 18331850.721 17215031.922 4298439.677 10 0 59584 37800.00000 0 18657902.923 17365025.109 1117209.908 10 0 59584 38700.00000 0 18702323.558 17227775.807 -2085715.246 10 0 59584 39600.00000 0 18429420.475 16844738.769 -5248147.590 10 0 59584 40500.00000 0 17814261.968 16265074.661 -8308689.552 10 0 59584 41400.00000 0 16843918.517 15543408.819 -11207926.482 10 0 59584 42300.00000 0 15518213.902 14737376.237 -13889579.704 10 0 59584 43200.00000 0 13849953.280 13905056.776 -16301597.882 10 0 59584 44100.00000 0 11864617.809 13102408.949 -18397165.550 10 0 59584 45000.00000 0 9599537.787 12380810.565 -20135609.370 10 0 59584 45900.00000 0 7102577.886 11784809.767 -21483184.904 10 0 59584 46800.00000 0 4430388.406 11350180.978 -22413729.101 10 0 59584 47700.00000 0 1646294.416 11102367.376 -22909166.252 10 0 59584 48600.00000 0 -1182090.419 11055375.177 -22959858.059 10 0 59584 49500.00000 0 -3985427.272 11211166.138 -22564791.300 10 0 59584 50400.00000 0 -6695287.328 11559573.797 -21731599.537 10 0 59584 51300.00000 0 -9246750.333 12078747.149 -20476418.347 10 0 59584 52200.00000 0 -11580859.569 12736103.400 -18823576.504 10 0 59584 53100.00000 0 -13646831.972 13489750.105 -16805128.617 10 0 59584 54000.00000 0 -15403932.286 14290317.269 -14460237.651 10 0 59584 54900.00000 0 -16822933.807 15083122.642 -11834418.630 10 0 59584 55800.00000 0 -17887105.325 15810579.168 -8978657.692 10 0 59584 56700.00000 0 -18592683.586 16414743.129 -5948423.144 10 0 59584 57600.00000 0 -18948812.075 16839895.229 -2802587.534 10 0 59584 58500.00000 0 -18976949.254 17035045.224 397718.200 10 0 59584 59400.00000 0 -18709771.856 16956253.613 3590295.960 10 0 59584 60300.00000 0 -18189620.138 16568671.503 6713093.458 10 0 59584 61200.00000 0 -17466551.393 15848211.530 9705414.646 10 0 59584 62100.00000 0 -16596084.654 14782778.318 12509103.482 10 0 59584 63000.00000 0 -15636732.480 13373005.521 15069677.446 10 0 59584 63900.00000 0 -14647424.671 11632467.501 17337388.292 10 0 59584 64800.00000 0 -13684933.074 9587355.740 19268189.236 10 0 59584 65700.00000 0 -12801406.391 7275632.715 20824589.833 10 0 59584 66600.00000 0 -12042118.978 4745697.876 21976382.091 10 0 59584 67500.00000 0 -11443528.331 2054620.707 22701224.168 10 0 59584 68400.00000 0 -11031722.724 -733986.193 22985070.789 10 0 59584 69300.00000 0 -10821323.892 -3552366.101 22822442.528 10 0 59584 70200.00000 0 -10814890.433 -6331190.208 22216529.178 10 0 59584 71100.00000 0 -11002846.530 -9002196.632 21179125.513 10 0 59584 72000.00000 0 -11363938.573 -11500787.485 19730400.835 10 0 59584 72900.00000 0 -11866200.128 -13768476.960 17898506.789 10 0 59584 73800.00000 0 -12468384.426 -15755089.592 15719030.855 10 0 59584 74700.00000 0 -13121803.905 -17420618.013 13234305.894 10 0 59584 75600.00000 0 -13772499.186 -18736663.800 10492588.853 10 0 59584 76500.00000 0 -14363645.974 -19687402.205 7547124.243 10 0 59584 77400.00000 0 -14838098.224 -20270031.356 4455110.461 10 0 59584 78300.00000 0 -15140960.023 -20494688.078 1276588.936 10 0 59584 79200.00000 0 -15222077.318 -20383834.810 -1926722.297 10 0 59584 80100.00000 0 -15038343.866 -19971144.197 -5092627.673 10 0 59584 81000.00000 0 -14555723.553 -19299929.127 -8159662.284 10 0 59584 81900.00000 0 -13750903.087 -18421184.990 -11068285.499 10 0 59584 82800.00000 0 -12612504.712 -17391327.179 -13762036.472 10 0 59584 83700.00000 0 -11141807.030 -16269719.574 -16188629.065 10 0 59584 84600.00000 0 -9352942.692 -15116098.317 -18300964.960 10 0 59584 85500.00000 0 -7272563.750 -13987999.381 -20058045.398 10 0 59585 0.00000 0 -4938987.756 -12938298.148 -21425764.187 10 0 59585 900.00000 0 -2400857.913 -12012963.578 -22377567.642 10 0 59585 1800.00000 0 284624.798 -11249122.385 -22894967.378 10 0 59585 2700.00000 0 3053829.272 -10673512.179 -22967898.888 10 0 59585 3600.00000 0 5839091.322 -10301389.529 -22594917.319 10 0 59585 4500.00000 0 8571282.829 -10135937.858 -21783227.526 10 0 59585 5400.00000 0 11182447.138 -10168199.856 -20548547.601 10 0 59585 6300.00000 0 13608392.264 -10377537.149 -18914808.129 10 0 59585 7200.00000 0 15791134.825 -10732597.869 -16913692.547 10 0 59585 8100.00000 0 17681093.812 -11192751.505 -14584026.855 10 0 59585 9000.00000 0 19238943.359 -11709930.668 -11971029.886 10 0 59585 9900.00000 0 20437047.623 -12230802.217 -9125438.143 10 0 59585 10800.00000 0 21260418.233 -12699176.019 -6102521.766 10 0 59585 11700.00000 0 21707154.597 -13058549.413 -2961010.531 10 0 59585 12600.00000 0 21788348.967 -13254679.384 238049.156 10 0 59585 13500.00000 0 21527460.739 -13238073.095 3432483.759 10 0 59585 14400.00000 0 20959186.838 -12966290.612 6560205.056 10 0 59585 15300.00000 0 20127876.350 -12405961.563 9560421.250 10 0 59585 16200.00000 0 19085556.891 -11534429.443 12374822.598 10 0 59585 17100.00000 0 17889656.514 -10340953.085 14948717.973 10 0 59585 18000.00000 0 16600517.793 -8827413.562 17232099.739 10 0 59585 18900.00000 0 15278809.292 -7008495.731 19180616.077 10 0 59585 19800.00000 0 13982943.694 -4911335.724 20756431.873 10 0 59585 20700.00000 0 12766611.351 -2574648.292 21928961.600 10 0 59585 21600.00000 0 11676532.796 -47369.558 22675460.395 10 0 59585 22500.00000 0 10750524.286 2613129.020 22981462.326 10 0 59585 23400.00000 0 10015957.071 5343181.786 22841057.823 10 0 59585 24300.00000 0 9488674.380 8075236.826 22257005.376 10 0 59585 25200.00000 0 9172410.800 10740431.396 21240675.606 10 0 59585 26100.00000 0 9058737.687 13271228.453 19811829.008 10 0 59585 27000.00000 0 9127536.134 15604005.559 17998231.643 10 0 59585 27900.00000 0 9347976.990 17681489.233 15835116.073 10 0 59585 28800.00000 0 9679966.138 19454934.144 13364497.770 10 0 59585 29700.00000 0 10075993.720 20885957.118 10634359.963 10 0 59585 30600.00000 0 10483308.958 21947950.183 7697722.432 10 0 59585 31500.00000 0 10846328.481 22627014.263 4611612.216 10 0 59585 32400.00000 0 11109176.128 22922375.215 1435956.114 10 0 59585 33300.00000 0 11218246.521 22846265.495 -1767583.480 10 0 59585 34200.00000 0 11124683.655 22423277.074 -4936806.517 10 0 59585 35100.00000 0 10786669.270 21689213.509 -8010183.558 10 0 59585 36000.00000 0 10171423.676 20689490.005 -10928050.609 10 0 59585 36900.00000 0 9256833.946 19477149.295 -13633767.053 10 0 59585 37800.00000 0 8032639.995 18110577.164 -16074814.080 10 0 59585 38700.00000 0 6501127.674 16651013.892 -18203812.375 10 0 59585 39600.00000 0 4677298.809 15159966.302 -19979439.378 10 0 59585 40500.00000 0 2588509.894 13696628.929 -21367228.714 10 0 59585 41400.00000 0 273593.364 12315422.241 -22340236.722 10 0 59585 42300.00000 0 -2218503.047 11063750.725 -22879563.543 10 0 59585 43200.00000 0 -4830503.433 9980074.218 -22974719.137 10 0 59585 44100.00000 0 -7498944.204 9092372.678 -22623827.404 10 0 59585 45000.00000 0 -10156580.065 8417068.123 -21833664.546 10 0 59585 45900.00000 0 -12734956.622 7958448.314 -20619530.841 10 0 59585 46800.00000 0 -15167043.718 7708615.867 -19004957.975 10 0 59585 47700.00000 0 -17389820.752 7647964.551 -17021257.110 10 0 59585 48600.00000 0 -19346707.104 7746162.440 -14706915.855 10 0 59585 49500.00000 0 -20989736.900 7963600.316 -12106855.141 10 0 59585 50400.00000 0 -22281387.655 8253244.100 -9271559.906 10 0 59585 51300.00000 0 -23195986.606 8562812.875 -6256100.032 10 0 59585 52200.00000 0 -23720636.043 8837190.201 -3119060.286 10 0 59585 53100.00000 0 -23855618.959 9020966.253 78599.797 10 0 59585 54000.00000 0 -23614268.182 9061002.658 3274733.713 10 0 59585 54900.00000 0 -23022304.792 8908910.661 6407219.896 10 0 59585 55800.00000 0 -22116674.019 8523336.876 9415173.496 10 0 59585 56700.00000 0 -20943928.081 7871958.915 12240133.865 10 0 59585 57600.00000 0 -19558224.557 6933105.485 14827204.100 10 0 59585 58500.00000 0 -18019025.059 5696931.503 17126119.979 10 0 59585 59400.00000 0 -16388591.445 4166097.609 19092227.330 10 0 59585 60300.00000 0 -14729385.114 2355924.413 20687348.848 10 0 59585 61200.00000 0 -13101478.763 294014.028 21880523.665 10 0 59585 62100.00000 0 -11560089.092 -1980646.261 22648605.736 10 0 59585 63000.00000 0 -10153333.514 -4419061.691 22976709.915 10 0 59585 63900.00000 0 -8920304.380 -6964032.369 22858497.511 10 0 59585 64800.00000 0 -7889540.518 -9552306.092 22296296.289 10 0 59585 65700.00000 0 -7077959.232 -12116992.789 21301052.876 10 0 59585 66600.00000 0 -6490292.482 -14590140.865 19892118.680 10 0 59585 67500.00000 0 -6119049.869 -16905368.992 18096873.481 10 0 59585 68400.00000 0 -5945008.962 -19000444.518 15950193.827 10 0 59585 69300.00000 0 -5938211.470 -20819701.705 13493776.328 10 0 59585 70200.00000 0 -6059422.551 -22316199.575 10775328.691 10 0 59585 71100.00000 0 -6261991.048 -23453529.871 7847643.873 10 0 59585 72000.00000 0 -6494031.635 -24207200.025 4767575.216 10 0 59585 72900.00000 0 -6700836.164 -24565533.777 1594932.345 10 0 59585 73800.00000 0 -6827411.836 -24530052.173 -1608680.697 10 0 59585 74700.00000 0 -6821038.372 -24115319.399 -4781062.256 10 0 59585 75600.00000 0 -6633735.531 -23348260.430 -7860621.351 10 0 59585 76500.00000 0 -6224536.071 -22266979.525 -10787573.735 10 0 59585 77400.00000 0 -5561467.491 -20919129.639 -13505102.175 10 0 59585 78300.00000 0 -4623158.173 -19359901.519 -15960458.347 10 0 59585 79200.00000 0 -3399999.366 -17649717.098 -18105984.983 10 0 59585 80100.00000 0 -1894813.229 -15851724.015 -19900038.561 10 0 59585 81000.00000 0 -122997.781 -14029196.181 -21307794.967 10 0 59585 81900.00000 0 1887858.482 -12242948.920 -22301922.967 10 0 59585 82800.00000 0 4098877.393 -10548876.458 -22863112.817 10 0 59585 83700.00000 0 6461271.029 -8995714.111 -22980450.216 10 0 59585 84600.00000 0 8918144.562 -7623117.980 -22651628.637 10 0 59585 85500.00000 0 11406648.136 -6460141.738 -21882996.017 10 0 59586 0.00000 0 13860389.234 -5524173.438 -20689434.935 10 0 59586 900.00000 0 16212007.509 -4820375.634 -19094077.539 10 0 59586 1800.00000 0 18395802.423 -4341652.808 -17127861.995 10 0 59586 2700.00000 0 20350309.353 -4069145.169 -14828936.261 10 0 59586 3600.00000 0 22020713.878 -3973228.843 -12241921.649 10 0 59586 4500.00000 0 23361004.983 -4014979.338 -9417049.342 10 0 59586 5400.00000 0 24335777.074 -4148036.215 -6409186.291 10 0 59586 6300.00000 0 24921605.297 -4320789.716 -3276769.177 10 0 59586 7200.00000 0 25107936.399 -4478796.393 -80667.226 10 0 59586 8100.00000 0 24897457.701 -4567320.841 3117003.736 10 0 59586 9000.00000 0 24305928.639 -4533895.190 6254092.549 10 0 59586 9900.00000 0 23361482.076 -4330787.110 9269625.025 10 0 59586 10800.00000 0 22103424.953 -3917270.907 12104993.165 10 0 59586 11700.00000 0 20580589.030 -3261604.643 14705097.598 10 0 59586 12600.00000 0 18849301.368 -2342628.705 17019420.505 10 0 59586 13500.00000 0 16971060.182 -1150917.325 19003007.996 10 0 59586 14400.00000 0 15010013.823 310566.480 20617342.811 10 0 59586 15300.00000 0 13030348.774 2026341.071 21831090.572 10 0 59586 16200.00000 0 11093695.945 3968807.867 22620705.457 10 0 59586 17100.00000 0 9256663.504 6099168.700 22970884.055 10 0 59586 18000.00000 0 7568598.898 8368821.332 22874859.036 10 0 59586 18900.00000 0 6069672.811 10721175.755 22334527.437 10 0 59586 19800.00000 0 4789364.120 13093816.401 21360411.396 10 0 59586 20700.00000 0 3745408.165 15420920.825 19971452.266 10 0 59586 21600.00000 0 2943251.043 17635834.851 18194642.131 10 0 59586 22500.00000 0 2376031.571 19673697.527 16064499.710 10 0 59586 23400.00000 0 2025090.528 21474006.911 13622400.584 10 0 59586 24300.00000 0 1860984.618 22983020.148 10915774.470 10 0 59586 25200.00000 0 1844961.529 24155887.967 7997184.783 10 0 59586 26100.00000 0 1930833.055 24958434.610 4923308.242 10 0 59586 27000.00000 0 2067166.478 25368508.972 1753834.235 10 0 59586 27900.00000 0 2199700.952 25376850.557 -1449694.688 10 0 59586 28800.00000 0 2273886.159 24987434.120 -4625078.396 10 0 59586 29700.00000 0 2237435.283 24217278.769 -7710667.421 10 0 59586 30600.00000 0 2042783.744 23095729.723 -10646560.144 10 0 59586 31500.00000 0 1649349.200 21663243.073 -13375765.362 10 0 59586 32400.00000 0 1025496.679 19969724.680 -15845307.611 10 0 59586 33300.00000 0 150125.229 18072492.910 -18007253.764 10 0 59586 34200.00000 0 -986191.556 16033950.547 -19819641.136 10 0 59586 35100.00000 0 -2380560.029 13919063.186 -21247289.408 10 0 59586 36000.00000 0 -4017644.149 11792749.142 -22262481.039 10 0 59586 36900.00000 0 -5870072.532 9717289.539 -22845497.390 10 0 59586 37800.00000 0 -7899359.108 7749866.007 -22985000.592 10 0 59586 38700.00000 0 -10057300.227 5940327.954 -22678254.057 10 0 59586 39600.00000 0 -12287791.110 4329281.784 -21931177.446 10 0 59586 40500.00000 0 -14528987.173 2946580.861 -20758234.966 10 0 59586 41400.00000 0 -16715721.231 1810278.351 -19182158.842 10 0 59586 42300.00000 0 -18782076.667 926085.927 -17233512.825 10 0 59586 43200.00000 0 -20664009.984 287360.082 -14950103.653 10 0 59586 44100.00000 0 -22301913.737 -124384.103 -12376251.149 10 0 59586 45000.00000 0 -23643012.881 -338454.031 -9561930.647 10 0 59586 45900.00000 0 -24643494.321 -393499.087 -6561803.914 10 0 59586 46800.00000 0 -25270280.240 -335631.668 -3434157.147 10 0 59586 47700.00000 0 -25502370.543 -216229.775 -239766.769 10 0 59586 48600.00000 0 -25331697.718 -89514.828 2959284.684 10 0 59586 49500.00000 0 -24763457.923 -10008.046 6100819.160 10 0 59586 50400.00000 0 -23815904.152 -29973.895 9123775.926 10 0 59586 51300.00000 0 -22519610.088 -196959.792 11969402.476 10 0 59586 52200.00000 0 -20916235.612 -551537.131 14582399.807 10 0 59586 53100.00000 0 -19056845.926 -1125340.063 16911999.256 10 0 59586 54000.00000 0 -16999855.015 -1939485.829 18912949.784 10 0 59586 54900.00000 0 -14808679.767 -3003444.185 20546396.488 10 0 59586 55800.00000 0 -12549203.084 -4314404.369 21780633.441 10 0 59586 56700.00000 0 -10287151.992 -5857167.123 22591716.608 10 0 59586 57600.00000 0 -8085499.960 -7604567.132 22963925.446 10 0 59586 58500.00000 0 -6002001.429 -9518408.995 22890064.684 10 0 59586 59400.00000 0 -4086960.643 -11550878.392 22371600.908 10 0 59586 60300.00000 0 -2381326.875 -13646370.294 21418631.645 10 0 59586 61200.00000 0 -915194.434 -15743658.552 20049687.688 10 0 59586 62100.00000 0 293231.177 -17778317.012 18291372.580 10 0 59586 63000.00000 0 1238159.132 -19685291.705 16177846.017 10 0 59586 63900.00000 0 1926210.444 -21401517.142 13750161.052 10 0 59586 64800.00000 0 2375887.894 -22868467.808 11055467.614 10 0 59586 65700.00000 0 2616542.213 -24034538.443 8146097.522 10 0 59586 66600.00000 0 2686879.101 -24857153.591 5078548.619 10 0 59586 67500.00000 0 2633071.011 -25304518.157 1912387.619 10 0 59586 68400.00000 0 2506554.247 -25356935.574 -1290906.987 10 0 59586 69300.00000 0 2361605.181 -25007638.222 -4469139.263 10 0 59586 70200.00000 0 2252798.718 -24263095.239 -7560603.998 10 0 59586 71100.00000 0 2232457.115 -23142784.697 -10505285.002 10 0 59586 72000.00000 0 2348197.531 -21678439.685 -13246019.945 10 0 59586 72900.00000 0 2640682.541 -19912799.833 -15729609.024 10 0 59586 73800.00000 0 3141669.143 -17897920.444 -17907845.981 10 0 59586 74700.00000 0 3872439.152 -15693109.891 -19738451.526 10 0 59586 75600.00000 0 4842677.785 -13362581.208 -21185891.429 10 0 59586 76500.00000 0 6049848.416 -10972915.560 -22222063.827 10 0 59586 77400.00000 0 7479090.638 -8590442.905 -22826842.795 10 0 59586 78300.00000 0 9103646.963 -6278648.355 -22988468.118 10 0 59586 79200.00000 0 10885801.438 -4095711.471 -22703773.968 10 0 59586 80100.00000 0 12778292.071 -2092280.147 -21978252.174 10 0 59586 81000.00000 0 14726139.223 -309570.847 -20825948.790 10 0 59586 81900.00000 0 16668814.720 1222126.609 -19269195.619 10 0 59586 82800.00000 0 18542661.952 2484478.229 -17338181.469 10 0 59586 83700.00000 0 20283466.625 3471626.965 -15070370.832 10 0 59586 84600.00000 0 21829071.156 4190184.861 -12509780.615 10 0 59586 85500.00000 0 23121923.488 4658697.366 -9706128.442 10 0 59587 0.00000 0 24111453.475 4906603.178 -6713868.877 10 0 59587 900.00000 0 24756177.384 4972734.312 -3591134.401 10 0 59587 1800.00000 0 25025440.482 4903420.162 -398605.883 10 0 59587 2700.00000 0 24900725.766 4750276.917 2801670.693 10 0 59587 3600.00000 0 24376471.892 4567776.301 5947493.769 10 0 59587 4500.00000 0 23460365.976 4410697.544 8977719.472 10 0 59587 5400.00000 0 22173098.504 4331571.301 11833454.121 10 0 59587 6300.00000 0 20547590.290 4378224.604 14459202.261 10 0 59587 7200.00000 0 18627723.851 4591531.513 16803947.349 10 0 59587 8100.00000 0 16466632.275 5003465.364 18822143.913 10 0 59587 9000.00000 0 14124617.212 5635535.592 20474601.842 10 0 59587 9900.00000 0 11666783.077 6497675.717 21729245.770 10 0 59587 10800.00000 0 9160486.110 7587629.999 22561735.209 10 0 59587 11700.00000 0 6672704.438 8890865.179 22955933.845 10 0 59587 12600.00000 0 4267438.360 10381011.649 22904219.378 10 0 59587 13500.00000 0 2003248.420 12020816.218 22407628.371 10 0 59587 14400.00000 0 -68967.088 13763567.224 21475833.638 10 0 59587 15300.00000 0 -1907863.633 15554932.987 20126954.790 10 0 59587 16200.00000 0 -3483133.414 17335137.285 18387205.673 10 0 59587 17100.00000 0 -4776519.252 19041381.465 16290385.353 10 0 59587 18000.00000 0 -5782318.390 20610412.217 13877222.313 10 0 59587 18900.00000 0 -6507356.539 21981127.923 11194584.327 10 0 59587 19800.00000 0 -6970434.622 23097114.606 8294568.974 10 0 59587 20700.00000 0 -7201272.651 23909005.241 5233492.358 10 0 59587 21600.00000 0 -7238996.384 24376563.427 2070795.517 10 0 59587 22500.00000 0 -7130231.552 24470403.820 -1132110.214 10 0 59587 23400.00000 0 -6926886.958 24173276.839 -4313036.217 10 0 59587 24300.00000 0 -6683720.884 23480863.466 -7410224.631 10 0 59587 25200.00000 0 -6455794.311 22402046.413 -10363547.677 10 0 59587 26100.00000 0 -6295919.151 20958646.028 -13115674.695 10 0 59587 27000.00000 0 -6252209.828 19184631.664 -15613184.127 10 0 59587 27900.00000 0 -6365842.063 17124841.193 -17807598.890 10 0 59587 28800.00000 0 -6669113.829 14833261.903 -19656325.126 10 0 59587 29700.00000 0 -7183890.702 12370944.164 -21123476.452 10 0 59587 30600.00000 0 -7920501.576 9803634.350 -22180568.146 10 0 59587 31500.00000 0 -8877131.763 7199225.155 -22807068.160 10 0 59587 32400.00000 0 -10039739.739 4625128.686 -22990794.771 10 0 59587 33300.00000 0 -11382501.885 2145680.796 -22728153.393 10 0 59587 34200.00000 0 -12868767.504 -180316.198 -22024208.108 10 0 59587 35100.00000 0 -14452485.168 -2301811.217 -20892586.466 10 0 59587 36000.00000 0 -16080041.670 -4177391.211 -19355219.074 10 0 59587 36900.00000 0 -17692437.482 -5776759.384 -17441918.582 10 0 59587 37800.00000 0 -19227708.406 -7081744.167 -15189805.652 10 0 59587 38700.00000 0 -20623492.493 -8086797.740 -12642592.360 10 0 59587 39600.00000 0 -21819634.857 -8798964.056 -9849736.443 10 0 59587 40500.00000 0 -22760721.100 -9237318.634 -6865482.333 10 0 59587 41400.00000 0 -23398432.679 -9431904.527 -3747807.354 10 0 59587 42300.00000 0 -23693624.720 -9422210.112 -557293.629 10 0 59587 43200.00000 0 -23618038.274 -9255253.812 2644052.165 10 0 59587 44100.00000 0 -23155574.235 -8983357.549 5794007.825 10 0 59587 45000.00000 0 -22303074.611 -8661703.931 8831349.257 10 0 59587 45900.00000 0 -21070577.607 -8345781.428 11697044.553 10 0 59587 46800.00000 0 -19481035.199 -8088826.438 14335404.708 10 0 59587 47700.00000 0 -17569504.634 -7939371.224 16695168.082 10 0 59587 48600.00000 0 -15381847.379 -7939002.057 18730497.335 10 0 59587 49500.00000 0 -12972989.717 -8120422.857 20401869.402 10 0 59587 50400.00000 0 -10404817.506 -8505906.492 21676841.370 10 0 59587 51300.00000 0 -7743792.719 -9106199.462 22530677.757 10 0 59587 52200.00000 0 -5058390.728 -9919926.436 22946827.491 10 0 59587 53100.00000 0 -2416464.670 -10933520.049 22917241.813 10 0 59587 54000.00000 0 117354.120 -12121679.279 22442527.402 10 0 59587 54900.00000 0 2484112.320 -13448337.635 21531932.116 10 0 59587 55800.00000 0 4632746.206 -14868100.925 20203163.779 10 0 59587 56700.00000 0 6521957.757 -16328094.827 18482045.605 10 0 59587 57600.00000 0 8121678.363 -17770145.251 16402014.759 10 0 59587 58500.00000 0 9414060.385 -19133200.411 14003473.592 10 0 59587 59400.00000 0 10393956.487 -20355893.339 11333005.837 10 0 59587 60300.00000 0 11068868.083 -21379137.476 8442472.666 10 0 59587 61200.00000 0 11458366.279 -22148646.356 5388006.022 10 0 59587 62100.00000 0 11593010.920 -22617271.449 2228918.640 10 0 59587 63000.00000 0 11512814.337 -22747059.651 -973448.070 10 0 59587 63900.00000 0 11265315.511 -22510943.587 -4156915.660 10 0 59587 64800.00000 0 10903346.784 -21893993.231 -7259676.480 10 0 59587 65700.00000 0 10482588.158 -20894175.746 -10221494.007 10 0 59587 66600.00000 0 10059013.027 -19522591.113 -12984872.021 10 0 59587 67500.00000 0 9686333.735 -17803173.109 -15496169.877 10 0 59587 68400.00000 0 9413555.159 -15771867.564 -17706642.176 10 0 59587 69300.00000 0 9282739.812 -13475321.722 -19573382.789 10 0 59587 70200.00000 0 9327078.962 -10969138.818 -21060155.202 10 0 59587 71100.00000 0 9569351.234 -8315769.969 -22138093.524 10 0 59587 72000.00000 0 10020833.847 -5582130.522 -22786260.914 10 0 59587 72900.00000 0 10680712.646 -2837039.188 -22992055.069 10 0 59587 73800.00000 0 11536016.208 -148585.534 -22751453.186 10 0 59587 74700.00000 0 12562077.409 2418465.619 -22069091.766 10 0 59587 75600.00000 0 13723503.793 4805126.054 -20958179.669 10 0 59587 76500.00000 0 14975616.850 6960391.320 -19440245.779 10 0 59587 77400.00000 0 16266300.565 8843112.228 -17544725.751 10 0 59587 78300.00000 0 17538182.375 10423453.699 -15308395.235 10 0 59587 79200.00000 0 18731055.487 11683880.953 -12774659.967 10 0 59587 80100.00000 0 19784441.117 12619632.636 -9992715.932 10 0 59587 81000.00000 0 20640182.949 13238661.913 -7016595.510 10 0 59587 81900.00000 0 21244964.486 13561048.845 -3904117.810 10 0 59587 82800.00000 0 21552642.815 13617909.565 -715763.700 10 0 59587 83700.00000 0 21526299.851 13449849.100 2486502.409 10 0 59587 84600.00000 0 21139923.823 13105023.976 5640440.717 10 0 59587 85500.00000 0 20379649.318 12636897.314 8684749.980 99